When you browse on this site, cookies collect data to enhance your experience and personalize the content and advertising you see.
Visit our Privacy Policy to learn more. By continuing to use the site, you agree to this use of cookies and data.

Hourly Weather Dori

Today, 11 August, Tuesday

Time Temperature Precipitation Wind Pressure Humidity
00:00 +28°C° 0 mm 5 mps 732 mmHg 77%
01:00 +28°C° 0 mm 5 mps 732 mmHg 78%
02:00 +28°C° 0 mm 6 mps 732 mmHg 78%
03:00 +28°C° 0 mm 6 mps 731 mmHg 79%
04:00 +27°C° 0 mm 6 mps 732 mmHg 79%
05:00 +27°C° 0 mm 5 mps 732 mmHg 79%
06:00 +27°C° 0 mm 5 mps 732 mmHg 80%
07:00 +28°C° 0 mm 5 mps 733 mmHg 78%
08:00 +28°C° 0 mm 5 mps 733 mmHg 76%
09:00 +29°C° 0 mm 6 mps 734 mmHg 74%
10:00 +29°C° 0 mm 6 mps 734 mmHg 71%
11:00 +30°C° 0 mm 6 mps 734 mmHg 68%
12:00 +30°C° 0 mm 7 mps 734 mmHg 66%
13:00 +32°C° 0 mm 7 mps 733 mmHg 64%
14:00 +32°C° 0 mm 6 mps 733 mmHg 62%
15:00 +32°C° 0 mm 6 mps 732 mmHg 61%
16:00 +32°C° 0.1 mm 6 mps 733 mmHg 62%
17:00 +30°C° 0.1 mm 5 mps 733 mmHg 63%
18:00 +30°C° 0.1 mm 5 mps 733 mmHg 65%
19:00 +29°C° 0 mm 5 mps 733 mmHg 69%
20:00 +28°C° 0 mm 6 mps 734 mmHg 73%
21:00 +27°C° 0 mm 6 mps 734 mmHg 78%
22:00 +27°C° 0 mm 6 mps 734 mmHg 79%
23:00 +27°C° 0 mm 6 mps 734 mmHg 80%

Tomorrow, 12 August, Wednesday

Time Temperature Precipitation Wind Pressure Humidity
00:00 +26°C° 0 mm 6 mps 735 mmHg 80%
01:00 +26°C° 0.1 mm 6 mps 734 mmHg 81%
02:00 +26°C° 0.1 mm 6 mps 734 mmHg 81%
03:00 +25°C° 0.1 mm 5 mps 734 mmHg 82%
04:00 +25°C° 0.3 mm 5 mps 734 mmHg 82%
05:00 +25°C° 0.3 mm 4 mps 734 mmHg 83%
06:00 +25°C° 0.3 mm 4 mps 735 mmHg 83%
07:00 +26°C° 0 mm 4 mps 735 mmHg 78%
08:00 +27°C° 0 mm 5 mps 736 mmHg 73%
09:00 +28°C° 0 mm 5 mps 736 mmHg 68%
10:00 +30°C° 0 mm 5 mps 736 mmHg 63%
11:00 +32°C° 0 mm 5 mps 736 mmHg 58%
12:00 +33°C° 0 mm 4 mps 736 mmHg 53%
13:00 +33°C° 0 mm 4 mps 735 mmHg 53%
14:00 +33°C° 0 mm 4 mps 734 mmHg 53%
15:00 +34°C° 0 mm 5 mps 734 mmHg 53%
16:00 +33°C° 0 mm 4 mps 733 mmHg 53%
17:00 +33°C° 0 mm 3 mps 733 mmHg 53%
18:00 +33°C° 0 mm 3 mps 733 mmHg 53%
19:00 +33°C° 0 mm 3 mps 734 mmHg 55%
20:00 +31°C° 0 mm 3 mps 734 mmHg 58%
21:00 +32°C° 0 mm 4 mps 735 mmHg 60%
22:00 +30°C° 0 mm 4 mps 735 mmHg 61%
23:00 +30°C° 0 mm 4 mps 735 mmHg 63%

Day after tomorrow, 13 August, Thursday

Time Temperature Precipitation Wind Pressure Humidity
00:00 +30°C° 0 mm 4 mps 735 mmHg 65%
01:00 +29°C° 0 mm 4 mps 735 mmHg 67%
02:00 +29°C° 0 mm 4 mps 735 mmHg 69%
03:00 +28°C° 0 mm 4 mps 734 mmHg 72%
04:00 +28°C° 0.2 mm 4 mps 735 mmHg 73%
05:00 +28°C° 0.2 mm 5 mps 735 mmHg 74%
06:00 +27°C° 0.2 mm 5 mps 735 mmHg 75%
07:00 +29°C° 0 mm 5 mps 735 mmHg 70%
08:00 +30°C° 0 mm 5 mps 736 mmHg 66%
09:00 +32°C° 0 mm 5 mps 736 mmHg 61%
10:00 +33°C° 0 mm 5 mps 736 mmHg 57%
11:00 +34°C° 0 mm 4 mps 735 mmHg 52%
12:00 +35°C° 0 mm 4 mps 735 mmHg 48%
13:00 +35°C° 0 mm 3 mps 734 mmHg 46%
14:00 +36°C° 0 mm 3 mps 734 mmHg 45%
15:00 +36°C° 0 mm 3 mps 733 mmHg 43%
16:00 +36°C° 0 mm 3 mps 733 mmHg 43%
17:00 +36°C° 0 mm 2 mps 733 mmHg 43%
18:00 +36°C° 0 mm 2 mps 733 mmHg 43%
19:00 +35°C° 0 mm 2 mps 733 mmHg 45%
20:00 +35°C° 0 mm 2 mps 733 mmHg 47%
21:00 +35°C° 0 mm 2 mps 734 mmHg 49%
22:00 +34°C° 0 mm 2 mps 733 mmHg 50%
23:00 +34°C° 0 mm 3 mps 733 mmHg 52%

14 August, Friday

Time Temperature Precipitation Wind Pressure Humidity
00:00 +33°C° 0 mm 3 mps 733 mmHg 54%
01:00 +32°C° 0 mm 4 mps 733 mmHg 57%
02:00 +32°C° 0 mm 5 mps 732 mmHg 60%
03:00 +30°C° 0 mm 5 mps 732 mmHg 63%
04:00 +30°C° 0 mm 5 mps 732 mmHg 65%
05:00 +30°C° 0 mm 5 mps 732 mmHg 66%
06:00 +30°C° 0 mm 5 mps 732 mmHg 67%
07:00 +32°C° 0 mm 5 mps 733 mmHg 63%
08:00 +32°C° 0 mm 5 mps 733 mmHg 60%
09:00 +33°C° 0 mm 5 mps 734 mmHg 57%
10:00 +35°C° 0 mm 5 mps 733 mmHg 52%
11:00 +36°C° 0 mm 4 mps 733 mmHg 47%
12:00 +37°C° 0 mm 3 mps 732 mmHg 42%
13:00 +38°C° 0 mm 3 mps 732 mmHg 40%
14:00 +39°C° 0 mm 3 mps 731 mmHg 38%
15:00 +40°C° 0 mm 4 mps 730 mmHg 36%
16:00 +39°C° 0 mm 3 mps 730 mmHg 37%
17:00 +39°C° 0 mm 3 mps 730 mmHg 38%
18:00 +38°C° 0 mm 2 mps 730 mmHg 39%
19:00 +37°C° 0 mm 3 mps 730 mmHg 42%
20:00 +37°C° 0 mm 3 mps 730 mmHg 45%
21:00 +36°C° 0 mm 4 mps 731 mmHg 48%
22:00 +35°C° 0 mm 5 mps 731 mmHg 52%
23:00 +34°C° 0 mm 5 mps 731 mmHg 56%

15 August, Saturday

Time Temperature Precipitation Wind Pressure Humidity
00:00 +33°C° 0 mm 6 mps 731 mmHg 60%
01:00 +32°C° 0 mm 7 mps 731 mmHg 64%
02:00 +30°C° 0 mm 7 mps 730 mmHg 68%
03:00 +29°C° 0 mm 7 mps 730 mmHg 72%
04:00 +29°C° 0 mm 7 mps 731 mmHg 74%
05:00 +28°C° 0 mm 7 mps 731 mmHg 76%
06:00 +28°C° 0 mm 6 mps 731 mmHg 77%
07:00 +29°C° 0 mm 7 mps 732 mmHg 74%
08:00 +30°C° 0 mm 7 mps 732 mmHg 71%
09:00 +31°C° 0 mm 8 mps 733 mmHg 68%
10:00 +33°C° 0 mm 7 mps 733 mmHg 62%
11:00 +34°C° 0 mm 7 mps 732 mmHg 57%
12:00 +36°C° 0 mm 7 mps 732 mmHg 51%
13:00 +38°C° 0 mm 7 mps 732 mmHg 49%
14:00 +38°C° 0 mm 6 mps 731 mmHg 47%
15:00 +39°C° 0 mm 6 mps 731 mmHg 45%
16:00 +38°C° 0 mm 6 mps 731 mmHg 49%
17:00 +36°C° 0 mm 6 mps 730 mmHg 54%
18:00 +34°C° 0 mm 7 mps 730 mmHg 58%
19:00 +33°C° 0.4 mm 7 mps 731 mmHg 62%
20:00 +32°C° 0.4 mm 7 mps 731 mmHg 66%
21:00 +30°C° 0.4 mm 6 mps 732 mmHg 70%
22:00 +30°C° 0.1 mm 6 mps 732 mmHg 71%
23:00 +30°C° 0.1 mm 6 mps 732 mmHg 72%

16 August, Sunday

Time Temperature Precipitation Wind Pressure Humidity
00:00 +29°C° 0.1 mm 6 mps 732 mmHg 73%
01:00 +29°C° 0.1 mm 7 mps 732 mmHg 74%
02:00 +28°C° 0.1 mm 7 mps 732 mmHg 76%
03:00 +28°C° 0.1 mm 7 mps 732 mmHg 77%
04:00 +28°C° 0 mm 6 mps 732 mmHg 78%
05:00 +27°C° 0 mm 6 mps 732 mmHg 78%
06:00 +27°C° 0 mm 6 mps 732 mmHg 79%
07:00 +28°C° 0 mm 6 mps 733 mmHg 75%
08:00 +29°C° 0 mm 7 mps 733 mmHg 70%
09:00 +30°C° 0 mm 7 mps 733 mmHg 66%
10:00 +32°C° 0 mm 7 mps 733 mmHg 60%
11:00 +34°C° 0 mm 6 mps 733 mmHg 54%
12:00 +35°C° 0 mm 5 mps 733 mmHg 49%
13:00 +36°C° 0 mm 4 mps 732 mmHg 46%
14:00 +37°C° 0 mm 4 mps 732 mmHg 42%
15:00 +37°C° 0 mm 3 mps 731 mmHg 39%
16:00 +37°C° 0 mm 3 mps 731 mmHg 40%
17:00 +37°C° 0 mm 4 mps 731 mmHg 41%
18:00 +36°C° 0 mm 4 mps 731 mmHg 42%
19:00 +35°C° 0 mm 5 mps 731 mmHg 47%
20:00 +34°C° 0 mm 5 mps 731 mmHg 52%
21:00 +33°C° 0 mm 6 mps 732 mmHg 58%
22:00 +33°C° 0 mm 6 mps 732 mmHg 59%
23:00 +32°C° 0 mm 5 mps 733 mmHg 61%
Show more